EHI
0 0 0 0 0 0 0 0 0 0 0 1 2 3 2 1 0 1 3 6 7 8 10 11 10 8 7 8 10 11 11 9 7 5 2 1 0 0 0 0 0 0 0 0
0 0 0 0 0 0 0 0 0 0 0 1 2 2 1 0 0 0 2 5 7 8 11 13 12 10 7 7 9 11 11 10 8 5 2 0 0 0 0 0 0 0 0 0
0 0 0 0 0 0 0 0 0 0 0 0 1 1 1 0 0 0 2 5 6 8 11 14 13 10 7 6 6 8 10 10 10 7 3 1 1 0 0 0 1 0 0 1
0 0 0 0 0 0 0 0 0 0 0 0 0 1 1 1 0 1 3 6 7 7 9 12 13 10 7 4 4 5 7 9 11 11 8 5 3 1 0 0 1 1 1 2
0 0 0 0 0 0 0 0 0 0 0 0 0 1 2 1 0 1 2 5 7 7 9 12 12 9 6 3 2 3 5 8 11 12 11 9 6 3 2 2 2 3 4 4
0 0 0 0 0 0 0 0 0 0 0 0 0 2 3 3 1 0 1 4 7 9 13 14 12 10 8 3 1 2 5 7 9 10 11 10 8 7 5 5 6 7 6 5
0 0 0 0 0 0 0 0 0 0 0 0 1 2 4 3 1 0 1 4 7 10 14 15 14 15 13 7 5 5 8 10 10 10 11 11 9 8 6 7 8 8 6 4
0 0 0 0 0 0 0 0 0 0 0 0 1 2 2 1 0 0 2 5 8 9 10 12 15 16 15 12 10 10 12 13 11 11 13 12 9 7 6 7 8 8 6 4
0 0 0 0 0 0 0 0 0 0 0 0 1 2 2 1 0 1 4 6 7 7 6 8 10 12 12 14 14 14 15 15 13 12 13 12 9 7 7 8 9 8 7 6
0 0 0 0 0 0 0 0 0 0 0 0 0 1 2 2 1 2 6 8 7 6 5 5 7 8 10 12 15 16 16 16 14 12 12 11 10 9 9 9 9 9 8 8
0 0 0 0 0 0 0 0 0 0 0 0 0 1 2 3 1 3 7 10 10 8 6 5 7 9 10 11 13 15 15 14 12 10 10 10 11 12 12 12 10 10 10 11
0 0 0 0 0 0 0 0 0 0 0 0 0 0 1 2 2 4 8 12 14 13 11 8 8 10 12 13 13 12 12 11 9 8 9 11 14 15 15 14 12 12 13 13
0 0 0 0 0 0 0 0 0 0 0 0 0 0 1 2 3 6 10 13 15 16 16 12 9 10 14 15 13 11 11 11 9 8 9 12 14 15 14 14 14 14 15 15
0 0 0 0 0 0 0 0 0 0 0 0 0 0 1 3 6 8 11 12 13 16 18 16 13 12 15 15 13 12 12 12 12 10 10 11 12 12 11 12 13 14 15 14
0 0 0 0 0 0 0 0 0 0 0 0 0 1 3 5 7 10 13 13 13 15 17 18 17 17 17 16 14 15 15 16 17 16 13 12 11 10 10 10 11 13 13 12
0 0 0 0 0 0 0 0 0 0 0 0 0 2 6 7 7 9 11 13 13 14 15 17 20 20 19 17 16 17 19 21 23 21 17 15 14 12 12 11 10 11 12 13
0 0 0 0 0 0 0 0 0 0 0 0 0 3 6 8 8 8 8 10 12 12 12 15 18 20 20 18 17 19 23 25 26 24 21 20 19 17 15 14 13 13 14 15
0 0 0 0 0 0 0 1 0 0 0 0 1 3 6 8 10 9 6 7 10 10 10 13 17 19 20 19 18 19 22 24 25 24 21 20 21 21 18 17 17 17 17 18
0 0 0 0 0 0 0 1 1 0 0 1 2 4 6 8 8 8 7 7 9 9 11 14 16 17 18 18 17 17 17 18 19 19 18 17 19 20 20 20 19 18 19 19
0 0 0 0 0 0 0 1 1 0 1 3 4 6 7 6 5 7 8 8 9 11 11 12 14 15 16 16 14 13 13 13 13 12 12 13 15 17 19 19 19 19 17 16
0 0 0 0 0 0 1 1 2 2 5 8 8 7 6 4 5 8 10 10 10 10 9 9 11 13 14 13 12 12 12 12 12 10 10 11 12 15 16 18 20 20 18 16
1 1 0 0 0 1 1 2 4 6 9 11 11 9 6 5 6 9 10 9 8 8 7 8 11 12 11 11 13 14 14 13 12 11 11 12 13 14 15 17 20 20 19 18
2 1 0 0 0 1 2 4 7 8 9 11 12 11 10 7 6 8 10 9 7 7 7 9 11 12 11 13 15 15 14 12 11 12 13 14 14 13 14 15 17 18 18 15
1 1 1 1 1 2 3 6 8 8 8 10 12 12 11 7 6 8 10 10 9 9 9 10 11 11 13 15 16 15 12 11 11 13 15 15 14 13 11 11 14 15 13 10
0 0 1 3 4 4 5 7 8 7 7 8 10 10 8 6 6 9 11 12 11 11 10 9 9 10 13 15 15 14 11 11 12 12 13 12 11 10 9 9 10 11 9 8
0 0 1 4 6 6 6 7 7 7 6 7 9 9 6 5 6 10 13 13 11 11 9 8 8 10 12 14 15 12 11 11 11 11 10 8 7 7 7 7 8 7 7 6
Wind_Speed
6 8 8 6 6 7 6 6 4 2 1 2 2 1 2 5 6 7 8 8 9 8 8 8 7 6 6 5 5 5 4 4 3 2 3 3 3 2 2 2 2 2 2 3
8 9 7 5 6 7 8 7 5 1 1 3 2 1 2 4 5 5 7 8 8 9 9 8 8 7 7 6 6 6 6 5 5 3 2 2 1 2 2 1 2 2 2 2
10 4 4 7 7 8 8 7 6 4 2 4 4 2 3 5 4 5 5 7 8 9 9 10 9 8 8 7 7 6 6 6 5 4 3 3 3 2 2 2 2 2 2 2
8 5 5 8 8 8 8 5 6 6 7 4 5 3 2 3 4 4 5 7 8 9 9 9 9 8 8 7 7 7 7 6 6 5 4 4 3 2 2 1 2 3 3 2
6 5 6 8 6 7 5 3 6 7 7 6 5 6 1 4 1 2 4 6 7 8 8 8 8 8 7 7 6 7 7 6 6 5 5 5 4 3 2 2 3 2 2 2
5 4 5 5 4 5 4 6 6 8 8 7 4 7 2 1 1 1 2 4 6 7 8 7 7 7 7 7 6 7 7 6 5 5 5 5 4 3 3 3 3 3 2 2
8 8 6 6 7 7 9 8 6 7 7 4 3 6 1 2 1 1 1 3 4 6 7 7 6 6 6 7 7 7 7 6 6 6 5 5 5 5 4 4 3 3 2 3
10 9 7 5 7 6 9 10 8 7 5 3 6 5 1 2 2 2 1 2 4 5 6 6 6 6 6 7 7 7 7 7 7 6 6 5 5 4 3 4 3 3 2 2
7 5 5 3 4 8 8 9 9 9 8 7 4 4 5 2 2 2 2 3 3 4 5 6 6 6 6 6 6 7 7 7 7 7 6 5 5 4 3 3 4 3 2 2
5 5 5 5 6 4 6 6 7 9 7 9 6 7 3 2 1 1 2 2 2 3 4 5 5 5 6 6 6 6 6 6 6 6 6 5 5 5 4 4 4 3 3 3
7 7 6 7 7 6 7 8 7 7 8 9 7 2 3 2 1 1 2 2 2 2 3 4 4 4 5 6 6 6 6 6 6 6 5 4 4 5 5 5 5 4 4 4
6 8 7 6 3 5 8 8 9 9 8 9 9 1 5 2 2 1 1 2 2 1 2 3 4 4 4 5 5 6 6 6 6 5 5 5 4 4 5 5 5 4 4 4
4 7 8 8 9 8 7 7 9 11 9 9 10 3 5 3 2 2 1 1 2 1 2 3 3 3 3 4 4 4 5 5 5 5 5 5 5 5 4 4 4 4 4 4
6 8 9 9 4 4 6 6 8 10 10 10 9 4 3 1 1 1 1 1 1 1 1 1 2 2 3 3 3 4 4 4 4 4 4 5 5 4 4 4 4 4 4 4
7 8 8 7 5 6 7 7 8 10 10 10 7 5 4 2 1 0 0 0 0 0 0 0 0 0 2 3 3 3 3 3 3 3 4 4 3 3 4 4 4 4 4 5
5 6 7 8 7 8 9 9 10 10 10 10 8 5 2 2 1 0 0 0 0 0 0 1 1 1 1 2 3 3 3 3 3 3 3 3 3 3 4 4 4 4 4 4
6 7 8 9 7 9 12 10 10 9 9 9 9 4 3 3 1 1 1 1 0 1 1 1 1 1 1 2 3 3 3 3 3 3 3 3 3 3 3 3 3 4 4 4
6 7 7 7 8 12 3 1 5 7 7 7 5 3 3 2 1 0 1 1 1 1 1 2 1 1 0 1 2 2 3 3 3 3 2 3 3 3 3 3 3 3 3 3
6 7 7 8 10 9 5 4 5 7 7 3 3 3 2 3 3 3 2 1 1 1 1 1 1 1 0 1 2 3 2 2 2 2 2 2 3 3 3 3 3 3 3 3
6 7 9 8 10 10 3 3 2 6 8 3 3 3 3 4 5 2 2 1 0 1 1 1 1 1 0 0 1 2 2 2 2 2 2 2 2 2 3 2 2 2 2 2
8 8 11 11 11 6 2 2 5 8 1 3 3 3 3 3 2 2 1 1 1 1 1 1 1 1 0 0 1 1 1 2 2 2 2 2 2 2 2 2 1 1 1 1
7 7 8 9 11 5 4 4 4 2 2 2 2 2 1 1 2 1 1 1 1 0 1 1 0 1 0 1 1 1 1 1 1 2 2 1 1 1 1 1 1 2 1 2
6 4 4 4 2 4 1 0 2 0 2 1 1 1 2 1 1 1 1 1 1 1 0 0 0 1 1 1 1 1 1 0 1 1 1 1 2 1 1 1 2 2 2 1
4 2 4 4 2 1 1 0 1 1 1 1 1 1 2 2 2 1 1 1 2 1 1 1 1 2 1 1 1 1 1 1 1 2 2 2 2 2 2 1 1 1 1 1
3 4 5 6 3 2 3 1 1 1 1 2 1 1 1 2 2 2 2 2 2 1 1 1 2 2 1 1 1 1 1 1 2 2 2 2 2 2 1 1 1 0 1 1
6 6 6 4 3 4 3 3 2 2 2 1 1 0 0 1 1 1 1 1 1 2 1 2 2 1 1 1 1 1 1 1 2 2 2 1 1 1 1 1 2 4 3 4
Wind_Direction
208 228 231 238 252 277 280 282 289 330 32 279 296 307 141 163 191 188 186 184 185 182 172 172 176 182 180 178 179 182 177 167 181 178 182 168 164 166 149 146 127 134 122 119
215 229 241 248 247 253 258 260 263 245 132 270 298 297 136 161 194 200 196 192 192 183 175 178 183 185 187 185 188 187 185 178 187 177 178 170 163 171 147 133 124 140 132 143
230 235 227 232 233 241 245 258 268 271 234 217 251 213 156 160 183 192 204 199 195 192 184 184 189 190 191 190 192 193 191 186 192 184 179 167 165 191 166 160 145 145 150 148
234 231 234 236 236 247 247 257 259 249 247 241 259 276 146 167 175 195 203 201 194 190 187 186 186 189 193 193 189 192 188 188 190 189 191 188 186 188 175 170 142 152 155 155
213 222 233 237 241 245 259 259 245 247 255 257 243 267 146 151 200 206 200 201 195 188 186 185 188 188 191 189 187 183 182 185 187 191 190 198 200 194 180 164 148 165 151 162
241 223 243 246 237 232 216 217 221 235 247 247 256 267 267 104 310 303 180 186 188 183 182 183 185 185 188 184 183 178 175 180 184 189 194 202 200 194 182 178 171 177 167 167
214 207 204 227 219 200 223 236 231 226 227 240 215 255 286 47 38 349 145 164 173 175 177 180 184 183 186 185 184 180 175 178 183 188 194 200 203 196 197 202 190 197 191 181
215 203 189 209 236 230 227 248 259 271 273 235 205 242 118 87 68 68 107 140 152 161 171 179 184 185 184 185 185 183 179 182 185 188 193 198 203 204 201 199 207 199 211 196
229 202 155 198 241 252 230 239 267 272 271 269 239 216 177 159 102 88 104 120 139 155 171 179 179 182 182 181 183 185 181 183 186 187 190 195 203 214 211 197 208 209 205 200
247 232 183 181 208 215 269 258 247 256 265 264 240 234 220 187 192 148 137 136 133 148 162 171 176 178 176 175 175 176 173 174 177 182 192 189 197 202 206 207 206 208 212 217
248 236 203 203 225 225 214 226 248 258 266 271 267 230 64 145 165 193 159 131 130 150 158 156 161 168 173 170 167 171 174 177 178 180 184 190 191 195 199 201 205 208 215 215
235 247 237 225 213 267 251 248 240 250 249 255 271 235 78 92 117 122 118 121 117 143 151 151 149 149 163 167 171 174 177 181 181 179 182 186 186 189 198 200 207 211 216 221
216 240 231 216 199 201 225 239 251 255 252 252 260 202 115 104 81 59 58 91 97 104 140 150 149 151 163 168 169 176 186 184 182 182 186 186 191 195 203 210 212 215 220 227
245 242 254 265 277 228 226 233 246 251 248 253 256 230 184 149 76 42 28 48 77 77 106 128 144 160 169 171 173 181 187 185 188 188 191 193 200 202 209 215 221 222 222 225
242 237 244 264 271 258 251 248 244 252 264 269 268 241 219 225 268 312 296 305 135 148 120 123 42 181 181 172 177 186 187 180 181 189 198 199 206 210 215 218 223 227 229 231
238 243 234 242 243 243 247 247 244 247 254 254 255 241 201 189 204 260 9 90 231 251 327 344 337 322 208 183 180 183 183 168 168 181 195 193 206 213 216 221 227 232 239 243
214 227 240 239 230 244 238 236 238 237 243 251 253 235 179 196 194 229 206 186 10 4 344 333 319 305 234 189 176 176 170 165 175 186 193 192 201 210 220 229 233 238 242 243
226 230 241 242 230 241 237 302 245 241 241 253 262 225 212 205 185 147 139 110 70 21 359 339 314 309 199 160 158 158 157 162 175 186 198 202 206 215 224 232 237 243 240 238
223 230 242 243 240 243 220 211 224 237 234 236 233 200 189 163 182 158 111 67 37 6 4 349 327 332 36 137 147 158 162 163 175 185 199 208 215 217 221 228 236 241 242 245
197 225 240 241 250 249 219 144 219 247 222 165 201 185 179 203 231 149 90 64 41 26 35 18 19 38 93 70 136 164 167 178 192 198 207 205 210 213 221 228 239 247 241 245
194 209 230 239 246 246 101 142 203 231 220 141 190 190 210 249 330 74 128 134 104 67 38 23 46 41 22 109 148 182 183 198 201 198 196 202 207 208 210 204 209 232 216 194
229 223 222 235 243 233 113 180 228 7 75 149 163 169 142 70 82 122 138 148 171 84 22 3 48 65 54 79 130 182 201 202 194 192 188 184 193 205 165 181 197 194 192 181
245 282 274 265 290 52 110 354 41 52 177 163 156 147 156 154 162 187 167 176 208 254 220 223 162 153 155 157 167 185 191 186 185 180 178 173 166 160 157 180 178 178 172 186
197 247 252 252 222 217 246 120 116 107 129 133 149 170 179 189 205 225 236 220 225 245 238 188 188 180 168 171 178 182 162 173 163 157 161 159 153 151 138 190 181 170 164 198
231 225 235 239 232 228 198 184 131 122 116 114 128 177 209 203 216 226 236 233 239 252 232 203 204 194 181 166 159 149 139 159 165 159 167 170 161 146 151 139 46 5 90 17
224 233 246 254 212 238 213 183 180 175 162 146 141 158 255 230 218 220 233 241 244 243 222 206 204 183 172 166 152 146 161 167 181 179 178 182 169 149 159 134 106 67 77 82